Location: Observatoire de Paris
(48.8363°N, 2.3365°E)
Time: 19:42:40
(UTC+01:00)

METEOR M2 - Pass Details

Date: 29 September 2021
Orbit: 820 x 826 km, 98.5° (Epoch: 28 October)

Event Time Altitude Azimuth Distance (km) Brightness Sun altitude
Rises 20:33:09 0° 202° (SSW) 3,339 ? -20.2°
Reaches altitude 10° 20:35:57 10° 216° (SW) 2,412 ? -20.6°
Maximum altitude 20:40:11 24° 269° (W) 1,662 ? -21.3°
Drops below altitude 10° 20:44:26 10° 321° (NW) 2,429 ? -21.9°
Sets 20:47:17 0° 336° (NNW) 3,368 ? -22.4°
